Location: Fontevrault
(47.1823°N, 0.0493°E)
Time: 03:31:24
(UTC+00:00)

Cosmos 1459 Rocket - Pass Details

Date: 24 October 2021
Orbit: 936 x 1000 km, 83.0° (Epoch: 01 December)

Event Time Altitude Azimuth Distance (km) Brightness Sun altitude
Rises 20:00:24 0° 200° (SSW) 3,659 7.0 -31.7°
Reaches altitude 10° 20:02:58 10° 204° (SSW) 2,707 6.4 -32.1°
Maximum altitude 20:09:03 58° 283° (WNW) 1,115 4.4 -33.1°
Drops below altitude 10° 20:15:05 10° 2° (N) 2,683 6.5 -34.1°
Sets 20:17:38 0° 6° (N) 3,625 7.2 -34.5°
